Regional Weather Roundup
Issued by NWS

Home | Current Version | Previous Version | Text Only | Print | Product List | Glossary On
Versions: 1 2 3 4 5 6 7 8 9 10 11 12 13 14 15 16 17 18 19 20 21 22 23 24 25 26 27 28 29 30 31 32 33 34 35 36 37 38 39 40 41 42 43 44 45 46 47 48 49 50
781
ASUS44 KLIX 202110
RWRLA
LOUISIANA WEATHER ROUNDUP
NATIONAL WEATHER SERVICE NEW ORLEANS LA
400 PM CDT MON OCT 20 2014

NOTE: "FAIR" INDICATES FEW OR NO CLOUDS BELOW 12,000 FEET WITH NO
      SIGNIFICANT WEATHER AND/OR OBSTRUCTIONS TO VISIBILITY.
      SKY/WX - SKY CONDITION AND SIGNIFICANT WEATHER.
      TMP - AIR TEMPERATURE.    DP   - DEWPOINT TEMPERATURE.
      RH  - RELATIVE HUMIDITY.  PRES - PRESSURE.
      HX  - HEAT INDEX.         WCI  - WIND CHILL INDEX.

*  THESE STATIONS ARE NOT NWS OR FAA STATIONS AND ARE NOT UNDER
   NWS QUALITY CONTROL.

LAZ040-048-061>063-065-066-069-202200-
SOUTHEAST LOUISIANA

CITY           SKY/WX    TMP DP  RH WIND       PRES   REMARKS
N.O. AUDUBON     N/A     79  59  49 MISG        N/A
N.O. INTL ARPT MOSUNNY   77  54  44 NE6       29.99F
N.O. LAKEFRONT SUNNY     78  55  44 NW7       30.00F
N.O. DOWNTOWN* FAIR      77  54  44 N5        30.00S
SLIDELL        MOSUNNY   75  55  49 NE3       29.99S
BATON ROUGE    MOSUNNY   78  53  41 VRB3      30.01S
BOOTHVILLE     CLOUDY    75  66  73 NE9       29.99F
BELLE CHASSE   MOSUNNY   79  55  43 NE6       29.98F
BOGALUSA*      FAIR      79  46  31 CALM      30.02S
NEW ROADS*     FAIR      76  54  46 CALM      30.01S
GONZALES*      FAIR      78  54  42 CALM      29.99S
HAMMOND*       PTSUNNY   79  46  31 NW3       30.02S
HOUMA*         SUNNY     81  55  41 NE5       29.98F
PORT FOURCHON* CLEAR     77  61  57 NE10      30.01F

$$

LAZ041-044-053-054-202200-
SOUTHWEST LOUISIANA

CITY           SKY/WX    TMP DP  RH WIND       PRES   REMARKS
LAKE CHARLES   SUNNY     80  55  42 E5        29.99F
LAFAYETTE      MOSUNNY   79  55  43 E5        30.00F
PATTERSON      NOT AVBL
SALT POINT       N/A     79  64  60 CALM      29.98S
NEW IBERIA     MOSUNNY   81  56  42 N6        30.00F
CHENAULT AIRPK NOT AVBL

$$

LAZ027-028-202200-
CENTRAL LOUISIANA

CITY           SKY/WX    TMP DP  RH WIND       PRES   REMARKS
FORT POLK      MOSUNNY   77  53  43 N7        30.00F
ALEXANDRIA INT MOSUNNY   78  51  38 N7        30.00F
ALEXANDRIA     MOSUNNY   77  51  40 N5        30.02F

$$

LAZ001-002-202200-
NORTHWEST LOUISIANA

CITY           SKY/WX    TMP DP  RH WIND       PRES   REMARKS
SHREVEPORT     MOSUNNY   78  51  38 CALM      30.02F
BARKSDALE AFB  MOSUNNY   79  48  34 VRB2      30.03F
DTN SHREVEPORT MOSUNNY   77  47  34 N5        30.03F

$$

LAZ014-016-202200-
NORTHEAST LOUISIANA

CITY           SKY/WX    TMP DP  RH WIND       PRES   REMARKS
MONROE         SUNNY     74  51  44 NW3       30.04F
TALLULAH       SUNNY     76  49  38 E3        30.03F

$$




USA.gov is the U.S. government's official web portal to all federal, state and local government web resources and services.